Flag for Kazakhstan Weather past 2 weeks in Astana, Kazakhstan

Now
14 °F

Sunny.


Feels Like: 8 °F
Forecast: 8 / 24 °F
Wind: 3 mph from West

Location: Astana

Current Time: Feb 28, 2015 at 7:27:11 PM

Latest Report: Feb 28, 2015 at 7:00 PM


Visibility: 10 mi

Pressure: 30.51 "Hg

Humidity: 79%

Dew point: 9 °F

Location of AstanaLocation

Historic Weather in Astana — Graph

°F

Astana temperature yesterday

Maximum temperature yesterday: 19 °F (at 3:00 PM)
Minimum temperature yesterday: 10 °F (at 9:30 AM)
Average temperature yesterday: 15 °F

Past Weeks' High & Low Weather Summary

 TemperatureHumidityPressure
High30 °F (Feb 25, 2:00 PM)93% (Feb 14, 12:30 PM)30.57 "Hg (Feb 14, 12:30 PM)
Low-20 °F (Feb 18, 8:00 AM)50% (Feb 19, 2:00 PM)29.92 "Hg (Feb 16, 2:30 PM)
Average11 °F81%30.25 "Hg
* Reported Feb 13 6:00 PM — Feb 28 6:30 PM, Astana, Weather by CustomWeather, © 2015

Note: Actual official high and low records may vary slightly from our data, if they occured in-between our weather recording intervals... More about our weather records

Advertising

Astana weather history for previous 24 hours

 ConditionsComfort  
Time TempWeatherWind HumidityBarometerVisibility
6:30 PM
Sat, Feb 28
14 °FSunny.3 mph85%30.51 "Hg10 mi
6:00 PM16 °FSunny.6 mph79%30.51 "Hg10 mi
5:30 PM16 °FSunny.6 mph79%30.51 "Hg10 mi
5:00 PM16 °FSunny.6 mph86%30.51 "Hg10 mi
4:30 PM16 °FPassing clouds.6 mph86%30.51 "HgN/A
4:00 PM16 °FPassing clouds.8 mph86%30.51 "HgN/A
3:30 PM16 °FPassing clouds.6 mph79%30.48 "HgN/A
3:00 PM14 °FPassing clouds.8 mph92%30.48 "HgN/A
2:30 PM14 °FScattered clouds.8 mph92%30.48 "HgN/A
2:00 PM14 °FPartly sunny.8 mph85%30.48 "HgN/A
1:30 PM14 °FPartly sunny.8 mph85%30.48 "HgN/A
1:00 PM14 °FPartly sunny.10 mph85%30.48 "HgN/A
12:30 PM12 °FLight snow. Mostly cloudy.13 mph85%30.48 "Hg5 mi
12:00 PM12 °FLight snow. Mostly cloudy.10 mph85%30.48 "Hg4 mi
11:30 AM10 °FLight snow. Mostly cloudy.8 mph85%30.51 "Hg2 mi
11:00 AM10 °FSnow. Mostly cloudy.6 mph85%30.48 "Hg2 mi
10:30 AM10 °FLight snow. Mostly cloudy.6 mph85%30.51 "Hg3 mi
9:30 AM9 °FSnow. More clouds than sun.8 mph85%30.48 "Hg2 mi
9:00 AM9 °FLight snow. Mostly cloudy.8 mph85%30.48 "Hg3 mi
8:30 AM9 °FLight snow. Mostly cloudy.6 mph85%30.48 "Hg4 mi
8:00 AM9 °FLight snow. Mostly cloudy.8 mph85%30.48 "Hg3 mi
7:30 AM9 °FLight snow. Mostly cloudy.8 mph85%30.48 "Hg3 mi
7:00 AM9 °FIce fog.10 mph85%30.48 "Hg3 mi
6:30 AM9 °FPassing clouds.10 mph85%30.48 "Hg4 mi
6:00 AM9 °FPassing clouds.8 mph85%30.48 "HgN/A
5:30 AM7 °FPassing clouds.6 mph85%30.51 "HgN/A
5:00 AM9 °FPassing clouds.8 mph85%30.51 "HgN/A
4:30 AM9 °FPassing clouds.6 mph85%30.48 "HgN/A
4:00 AM9 °FPassing clouds.10 mph85%30.48 "Hg6 mi
3:30 AM7 °FClear.8 mph85%30.51 "Hg10 mi
3:00 AM9 °FClear.8 mph92%30.51 "Hg10 mi
2:30 AM9 °FClear.8 mph85%30.51 "Hg10 mi
2:00 AM9 °FClear.8 mph85%30.51 "Hg10 mi
1:30 AM10 °FPassing clouds.10 mph85%30.51 "HgN/A
1:00 AM10 °FIce fog.6 mph85%30.51 "Hg3 mi
12:30 AM10 °FPassing clouds.6 mph92%30.51 "Hg5 mi
12:00 AM12 °FClear.8 mph85%30.54 "Hg10 mi
11:30 PM
Fri, Feb 27
12 °FClear.10 mph92%30.54 "Hg10 mi
11:00 PM12 °FClear.10 mph92%30.54 "Hg10 mi
10:30 PM12 °FClear.13 mph92%30.54 "Hg10 mi
10:00 PM12 °FClear.13 mph92%30.54 "Hg10 mi
9:30 PM14 °FClear.13 mph85%30.54 "Hg10 mi
9:00 PM14 °FClear.13 mph85%30.54 "Hg10 mi
8:30 PM14 °FClear.13 mph85%30.54 "Hg10 mi
8:00 PM14 °FClear.10 mph85%30.54 "Hg10 mi
7:30 PM16 °FSunny.10 mph79%30.54 "Hg10 mi
7:00 PM16 °FSunny.10 mph86%30.54 "Hg10 mi
Weather by CustomWeather, © 2015

See weather overviewHow to use our weather pages